Location: Namasale
(1.5000°N, 32.6167°E)
Time: 01:59:53
(UTC+00:00)

N. Korean satellite - Pass Details

Date: 16 December 2021
Orbit: 447 x 490 km, 97.3° (Epoch: 27 January)

Event Time Altitude Azimuth Distance (km) Brightness Sun altitude
Rises 02:24:44 0° 21° (NNE) 2,463 10.1 -19.0°
Reaches altitude 10° 02:26:48 10° 27° (NNE) 1,600 9.2 -18.5°
Maximum altitude 02:30:06 44° 101° (E) 650 7.6 -17.8°
Drops below altitude 10° 02:33:27 10° 174° (S) 1,633 9.6 -17.0°
Sets 02:35:35 0° 181° (S) 2,521 10.5 -16.5°
